Theta_e
330 328 326 324 324 323 323 323 323 323 322 321 322 322 321 319 318 318 317 316 317 317 317 317 317 317 317 316 314 314 313 314 314 314 314 314 315 315 315 315 315 315 314 314 314 315 315 315 314 313 314 314 315 315 315 315 316 316 317 317 313 312 313 311 309 309 310 309 307 307 307 307 308 309 309 309 308 308 308 307 307 308 308 309 309
329 327 326 325 325 324 323 323 322 321 321 321 322 321 320 319 318 317 316 316 316 316 315 316 316 317 316 316 315 315 314 314 314 314 314 314 315 315 316 316 317 317 316 315 314 314 314 314 314 313 313 313 314 314 314 315 316 316 317 317 314 311 311 310 308 307 308 308 308 307 307 307 307 309 310 309 309 309 308 308 308 307 308 309 309
326 326 326 326 325 325 324 323 321 321 321 321 321 321 320 319 318 317 316 317 316 316 315 316 317 316 316 316 315 315 315 314 314 314 314 315 315 316 316 315 315 316 316 315 315 314 313 314 314 314 314 314 314 314 314 315 315 315 315 315 312 310 310 309 308 307 307 308 307 307 307 307 307 309 309 309 309 309 309 309 308 308 308 309 309
327 327 327 326 324 323 323 322 321 321 321 320 320 320 319 319 318 317 317 318 317 317 316 316 316 316 316 316 316 316 316 315 315 315 315 315 316 316 316 315 314 315 315 314 314 314 313 313 314 314 314 315 315 315 314 315 315 313 312 312 311 310 310 309 309 308 308 308 308 307 308 308 308 309 309 309 309 309 310 309 309 308 308 308 309
327 327 327 327 325 323 323 321 321 321 321 320 320 320 319 319 319 318 318 318 318 318 317 316 316 316 317 317 316 317 317 316 316 317 316 315 315 316 315 315 315 315 314 314 313 313 312 313 314 314 314 315 315 315 315 315 314 314 312 312 312 311 311 310 309 308 308 308 308 309 309 309 310 310 310 309 309 309 310 309 309 308 308 309 309
325 326 327 327 326 324 323 322 322 321 321 320 320 320 320 319 319 319 319 318 318 318 318 317 317 317 318 317 317 317 318 317 316 317 317 315 315 315 315 314 315 314 314 314 314 314 314 313 313 313 313 314 315 316 316 315 315 314 313 313 312 312 311 311 310 310 310 309 309 310 311 311 311 311 310 309 309 310 310 309 309 309 309 309 309
325 326 326 326 324 323 323 323 322 322 321 320 320 320 319 319 319 319 318 318 318 319 318 318 318 318 318 318 318 318 319 318 316 316 317 317 316 315 315 316 316 315 314 315 316 316 317 315 314 313 313 314 315 315 315 315 316 315 314 314 314 314 313 313 311 310 310 309 309 310 311 312 312 312 311 310 310 310 310 310 310 309 309 309 309
324 325 325 324 323 323 324 324 322 322 321 320 320 320 320 320 319 319 318 317 317 318 318 317 318 318 318 318 318 319 319 319 318 317 318 318 318 317 317 318 318 316 316 317 317 317 317 317 316 316 316 315 315 316 315 315 315 315 315 315 315 315 315 314 314 312 311 310 310 311 311 312 312 311 311 310 310 310 310 310 310 310 309 309 309
323 323 323 323 323 323 325 325 323 321 321 321 321 322 321 321 320 319 319 317 316 317 318 317 317 318 318 318 318 319 319 319 319 319 319 319 319 319 319 319 319 319 319 319 318 318 318 318 317 317 317 317 317 316 316 315 315 315 315 315 314 315 314 314 315 314 313 313 313 312 312 313 313 311 310 311 311 311 311 311 310 310 309 309 309
321 322 323 323 323 323 324 325 324 322 321 321 322 322 321 321 320 319 320 319 317 317 318 318 317 317 318 318 318 318 319 320 320 320 320 320 320 320 320 320 321 321 321 320 320 320 320 319 319 318 318 317 317 317 317 316 316 315 315 314 314 313 314 314 314 314 315 315 314 314 313 314 313 311 311 312 311 311 310 310 310 309 309 309 308
321 322 322 322 322 323 323 324 324 323 321 321 321 320 320 321 320 320 321 321 320 320 320 319 318 318 318 319 319 319 319 320 320 320 321 321 322 322 322 322 322 322 321 321 321 321 321 321 321 320 319 318 318 318 318 317 317 317 316 315 315 314 314 314 314 314 315 314 314 314 314 313 312 312 311 311 310 310 310 309 309 308 308 307 307
322 322 322 322 321 322 322 322 323 323 322 322 322 321 321 321 322 322 322 322 321 321 321 320 319 319 320 319 320 320 320 319 320 319 320 320 321 322 322 322 322 322 322 322 321 320 320 319 320 320 320 319 319 318 318 318 317 317 317 317 317 316 315 314 314 314 314 314 314 314 313 313 312 311 311 310 309 309 309 308 308 307 306 306 305
319 320 321 321 321 321 321 321 322 322 321 322 322 321 321 321 322 322 323 323 322 322 321 321 320 320 320 320 319 319 319 319 320 319 319 319 319 320 321 321 321 322 322 321 321 321 320 319 319 320 320 320 319 319 318 318 317 317 318 317 317 317 315 314 314 314 314 314 314 313 313 313 312 311 311 310 310 309 308 307 306 305 305 304 303
313 317 319 320 320 321 321 321 321 320 319 320 321 321 321 321 321 322 322 323 323 322 322 321 321 320 320 320 320 319 320 320 320 319 319 319 319 320 321 321 321 320 319 319 320 320 320 319 319 319 319 319 319 319 318 317 317 318 318 317 316 316 315 314 313 313 313 313 313 313 312 312 311 311 311 310 309 308 307 306 305 304 304 303 302
307 310 313 315 315 316 317 318 319 320 320 320 320 320 321 320 320 321 321 322 322 322 322 321 321 321 321 321 320 320 320 320 320 320 320 319 319 320 320 320 319 317 316 317 319 319 318 318 318 318 319 319 319 319 319 318 318 318 318 316 315 315 315 314 314 314 313 313 313 313 312 311 310 310 310 309 308 307 306 305 304 303 302 302 300
304 305 306 307 308 309 309 311 313 316 319 320 320 320 320 320 320 320 320 321 321 321 321 321 321 321 320 321 321 320 320 320 320 320 319 319 319 318 319 319 318 317 317 317 318 318 317 317 318 318 318 319 320 320 319 319 318 316 316 315 315 315 315 315 314 313 313 312 312 312 311 310 310 309 308 307 306 305 304 303 302 302 301 300 299
303 303 303 304 304 305 305 305 306 308 312 314 316 316 316 316 318 321 321 322 321 321 320 320 321 321 321 321 321 321 320 321 321 320 319 318 318 317 318 318 317 317 317 318 318 318 316 316 317 318 319 319 319 319 319 318 316 315 315 314 314 314 313 312 311 310 309 309 309 309 309 309 308 307 306 304 303 303 303 302 301 300 300 299 298
303 303 303 303 303 303 304 304 304 304 306 308 309 310 309 309 312 315 319 321 321 321 321 321 321 321 321 320 320 320 320 320 321 320 320 319 319 318 318 318 318 318 318 317 318 318 316 316 317 318 319 320 318 318 319 318 317 316 315 314 313 312 311 310 308 307 307 308 308 308 308 307 306 304 303 303 302 302 302 302 301 300 299 298 298
302 303 303 303 303 303 303 303 303 303 304 305 306 306 306 306 307 309 311 313 315 315 317 319 320 321 320 319 318 318 318 319 319 320 320 320 320 320 319 318 318 318 317 317 319 318 317 317 317 317 319 319 317 317 318 318 317 316 315 315 313 312 311 310 308 307 307 307 307 306 306 304 303 303 303 303 303 302 302 302 301 300 299 299 298
302 302 302 302 302 303 303 303 303 303 303 303 304 304 305 305 306 307 307 308 308 308 309 311 314 317 318 319 319 318 318 318 319 319 319 318 319 319 319 318 318 318 317 318 319 318 316 317 317 317 318 319 318 317 316 314 314 314 315 315 315 313 311 309 308 307 307 306 305 304 303 303 303 303 302 302 302 302 302 301 300 300 299 299 297
301 301 302 302 302 302 302 302 302 302 302 302 303 303 303 304 305 305 306 306 306 306 306 306 307 309 311 314 316 317 317 317 318 317 316 315 317 318 318 318 318 318 316 316 317 317 316 316 316 316 318 319 318 315 311 308 308 310 312 314 315 313 310 308 307 307 306 305 304 303 303 302 302 301 301 300 300 300 300 299 299 298 298 297 296
300 301 301 301 301 301 302 302 302 302 302 302 302 302 302 303 303 303 304 304 304 304 305 305 306 306 306 308 310 313 315 316 317 316 314 314 316 318 318 318 318 317 314 313 315 317 316 315 315 316 318 319 315 311 307 305 305 308 311 313 313 311 309 308 307 306 304 304 303 302 301 301 300 299 299 299 298 298 298 297 297 296 296 295 295
299 299 299 299 299 300 300 300 300 300 301 301 301 301 302 302 302 302 302 303 303 303 304 304 305 305 306 306 307 309 311 313 315 316 315 314 315 317 317 316 316 315 312 311 313 316 316 316 316 316 316 315 311 308 306 304 306 309 310 311 311 310 308 307 306 304 303 303 302 301 300 299 299 298 298 297 297 297 297 296 296 295 295 294 294
298 298 298 298 298 298 298 299 299 299 300 300 300 301 301 301 301 301 301 302 302 302 303 304 304 305 306 307 307 307 308 310 313 315 316 315 314 314 314 313 313 311 310 308 310 314 316 316 315 313 311 310 309 307 305 304 306 308 309 309 309 308 306 305 303 302 302 302 300 299 298 298 298 297 297 296 296 296 295 295 295 294 294 293 293
297 297 297 297 297 297 297 298 298 298 298 299 299 299 299 299 300 300 300 301 302 302 302 302 302 303 305 306 307 308 309 310 311 312 314 315 314 312 311 310 308 307 306 305 307 312 315 314 313 311 309 309 308 306 305 305 306 307 306 306 306 305 303 302 301 301 301 300 299 298 297 297 297 296 296 295 295 295 294 294 294 293 293 292 292
296 296 296 296 296 297 297 297 297 297 297 298 298 298 298 298 298 299 299 300 300 300 300 300 300 300 301 303 304 305 307 309 310 310 309 309 309 308 307 306 305 305 306 305 306 310 312 312 310 308 306 305 306 305 305 305 304 304 304 303 302 301 301 300 300 300 299 298 298 297 297 296 296 295 295 294 294 294 294 293 293 293 292 292 291
296 295 296 296 296 296 296 296 296 297 297 297 297 297 297 297 297 298 298 298 298 298 298 299 299 299 299 300 301 301 302 304 307 308 308 306 304 304 304 304 304 304 305 306 308 309 310 309 307 305 303 303 304 304 304 303 302 302 302 301 300 300 299 299 299 299 298 297 297 296 296 295 295 295 294 294 294 293 293 293 293 292 292 291 291
295 295 295 295 295 295 295 295 296 296 296 296 296 297 297 297 297 297 297 297 297 297 297 298 298 298 298 299 299 300 300 301 303 305 307 306 305 304 304 304 304 302 302 305 307 307 306 304 303 303 303 302 302 302 301 301 301 301 300 299 299 299 299 298 298 297 297 297 296 296 295 295 294 294 294 294 293 293 293 293 292 291 291 290 290
294 294 295 295 295 295 296 296 296 296 296 296 296 296 296 296 296 296 296 296 296 296 297 297 297 298 298 298 298 299 300 300 301 303 304 305 307 307 306 305 304 302 301 304 305 304 303 301 299 300 301 300 299 299 300 300 299 299 299 299 299 298 298 298 297 296 296 296 296 295 295 294 294 294 293 293 293 293 293 292 291 291 290 290 290
295 295 295 296 296 296 296 296 295 296 296 296 296 296 296 295 295 295 296 295 295 296 296 296 296 297 298 298 298 298 299 299 300 302 303 304 305 306 306 305 305 303 301 302 304 303 303 301 299 299 299 299 299 300 299 299 299 298 299 299 298 298 298 297 297 297 296 296 295 294 294 294 293 293 293 293 293 292 292 291 291 291 291 290 290
295 296 296 296 296 296 295 295 295 295 295 295 295 294 294 294 295 294 295 295 295 295 295 295 296 296 297 297 298 298 299 299 298 299 300 301 301 303 304 304 305 305 303 301 302 302 302 301 300 299 299 299 300 300 300 299 299 299 299 298 298 297 297 297 297 296 296 295 294 294 293 293 293 293 293 293 292 292 292 291 291 291 291 291 290
295 296 296 296 296 295 295 294 294 294 294 294 294 293 293 293 293 294 294 294 294 295 295 295 295 295 296 296 297 298 298 299 298 298 299 299 300 302 303 303 304 305 303 301 299 299 299 299 299 299 299 300 301 300 300 300 300 300 299 297 297 297 297 296 296 295 295 294 293 293 293 293 293 293 293 292 292 292 291 291 291 291 291 290 290
295 296 296 296 295 295 294 294 294 294 293 293 293 293 292 292 292 292 293 293 293 293 294 294 294 294 295 296 296 297 298 299 299 298 299 299 300 302 304 304 304 304 303 302 300 299 299 299 299 299 300 301 301 300 300 301 300 299 298 297 296 296 295 295 295 294 294 294 293 293 293 293 293 292 292 292 292 291 291 291 291 291 290 290 290
296 296 296 296 295 294 294 294 293 293 293 292 292 292 292 292 291 291 291 292 292 292 292 292 293 293 294 295 296 297 297 298 299 298 298 298 299 301 303 304 304 303 302 302 301 301 300 300 300 300 301 301 300 300 301 300 299 298 297 296 296 295 294 294 294 294 294 293 293 293 292 292 292 292 292 291 291 291 291 291 291 290 290 290 289
296 296 296 295 294 294 294 293 293 293 292 292 291 291 291 291 291 292 292 292 292 292 291 291 292 293 293 295 296 297 297 298 298 298 298 298 298 299 301 303 303 303 302 301 301 301 301 301 301 301 301 300 299 300 301 300 299 298 297 296 296 295 294 294 294 293 293 292 292 292 292 292 292 291 291 291 291 291 291 290 290 290 289 289 289
296 296 295 294 294 294 293 293 293 292 292 292 291 291 291 291 292 292 292 292 292 292 292 292 292 293 294 295 296 296 296 297 298 298 298 298 299 299 299 301 303 303 302 300 299 300 300 300 300 299 299 299 300 300 300 299 298 298 297 296 296 294 294 293 293 292 292 292 292 292 292 291 291 291 291 290 290 290 290 290 289 289 289 289 289
296 295 295 294 294 293 293 292 292 292 292 292 291 291 291 292 292 292 292 292 292 292 292 292 293 294 294 295 296 296 296 296 297 298 298 298 298 299 299 299 301 302 302 301 300 300 300 300 299 298 298 299 300 300 299 298 298 297 296 295 295 294 293 293 292 292 292 292 292 292 291 291 291 290 290 290 289 289 289 289 289 289 289 289 290
295 294 294 294 293 293 293 292 292 292 292 292 292 291 292 292 292 292 292 292 292 292 292 292 293 294 294 294 294 295 295 295 296 297 297 297 297 298 298 298 299 300 301 301 301 300 300 299 299 298 298 298 299 299 299 298 298 296 295 294 293 293 292 292 292 292 292 292 292 291 291 291 290 290 289 289 289 288 289 289 289 289 290 290 290
294 294 294 293 293 293 292 292 291 292 292 292 292 292 292 292 292 292 292 292 292 292 292 293 293 294 294 294 294 294 295 295 296 296 295 295 296 297 297 297 298 298 299 299 299 298 299 298 298 297 297 296 296 297 297 296 295 294 293 293 292 292 292 291 292 292 292 292 291 291 290 290 289 289 289 289 288 289 289 289 290 290 290 290 290
294 294 294 293 293 292 292 291 292 292 292 292 292 292 292 292 292 292 292 292 292 292 293 293 293 293 294 294 294 295 295 296 295 295 294 295 295 296 296 296 296 297 297 297 297 296 296 296 296 295 295 294 294 294 294 293 293 292 292 291 291 291 291 291 291 292 291 291 291 290 289 289 289 289 289 288 289 289 289 290 290 290 290 290 290
294 294 293 293 293 292 292 291 292 292 292 292 292 292 292 292 292 293 292 292 292 292 292 293 293 293 294 294 294 296 296 296 295 295 295 294 294 294 295 295 296 296 297 296 296 295 294 294 294 294 294 294 293 294 293 293 292 292 291 291 291 290 290 291 291 291 291 291 290 290 289 289 289 289 288 288 289 289 290 290 290 290 290 290 290
295 294 293 293 293 292 292 291 292 292 292 292 292 292 292 292 292 292 292 292 291 291 292 292 293 293 294 294 295 296 296 296 295 295 295 294 294 294 295 295 296 296 297 297 296 296 295 294 294 294 294 293 293 293 293 292 292 292 291 291 291 291 291 291 291 291 291 290 290 289 289 289 289 289 289 289 289 289 290 290 290 290 290 290 290
295 294 293 293 293 293 292 292 292 292 292 292 292 292 292 292 292 292 292 291 291 291 291 291 292 292 293 293 294 294 295 294 294 294 294 294 294 294 294 295 295 296 296 296 296 296 296 295 294 294 293 292 292 292 292 292 292 292 291 291 291 291 291 291 290 290 289 289 289 289 289 289 289 289 289 289 289 289 289 290 290 290 290 290 290
295 294 293 293 293 293 293 292 292 292 292 292 292 292 292 292 292 292 292 292 291 291 291 291 291 291 291 292 292 293 293 293 293 293 293 293 294 294 294 295 295 295 295 295 295 295 294 294 293 292 291 291 291 291 291 291 291 291 290 290 290 289 288 288 288 288 288 289 289 289 288 288 288 289 289 289 289 289 289 290 290 290 290 290 290
295 294 294 293 293 293 293 293 292 292 292 292 292 292 292 292 292 292 292 292 291 291 291 290 290 290 290 291 291 291 291 291 291 291 292 292 293 293 294 294 294 293 293 293 292 292 292 292 291 291 291 290 290 290 290 290 289 289 289 289 288 288 287 287 287 287 288 289 289 288 288 288 288 289 289 289 289 289 289 290 290 290 290 290 291
295 294 294 294 293 293 293 293 293 292 292 292 292 292 292 292 292 292 292 291 291 291 291 290 290 290 290 290 290 290 290 290 289 290 290 290 291 291 291 291 291 291 291 291 291 292 292 292 291 291 290 290 290 290 289 289 288 288 288 288 288 288 288 287 287 287 288 289 289 288 288 288 288 289 289 289 289 289 289 290 290 290 290 290 291
295 295 294 294 294 293 293 293 293 293 292 292 291 291 291 291 291 291 291 291 291 291 291 291 290 290 290 290 290 289 289 289 288 288 288 289 289 289 289 290 290 290 290 290 290 291 291 290 290 289 289 289 289 288 288 288 288 288 288 288 288 288 288 288 287 286 287 288 289 288 288 288 289 289 289 289 288 289 289 289 290 290 290 290 290
296 295 294 294 294 293 293 293 292 292 292 292 291 291 291 291 291 291 291 291 291 291 291 291 291 291 291 291 291 290 290 290 290 289 289 289 289 289 289 290 290 290 290 290 290 290 290 289 289 289 289 288 288 288 288 288 288 288 288 288 288 288 288 288 287 286 287 288 288 288 288 289 289 289 289 288 288 288 289 289 289 290 290 290 290
296 295 295 295 294 294 293 293 292 292 292 292 292 291 290 290 290 290 290 291 291 291 291 291 291 291 291 291 291 292 292 292 292 292 291 291 291 291 291 291 291 291 290 290 290 290 290 290 289 289 289 288 288 288 288 287 287 287 288 288 288 288 288 287 286 287 288 288 288 288 288 289 289 289 289 289 288 288 289 289 289 289 290 290 290
296 295 295 295 294 294 293 293 292 292 292 292 292 291 291 290 290 290 290 290 291 290 290 290 290 290 290 291 291 291 291 292 291 291 291 291 291 291 291 291 291 290 290 290 289 289 289 289 289 289 288 288 288 288 288 287 287 288 288 288 289 289 288 287 286 287 288 288 288 288 289 289 289 289 289 289 289 289 289 289 289 289 289 289 289
295 295 295 295 294 294 293 293 292 292 292 292 292 292 291 291 291 290 290 290 290 290 290 290 290 290 290 290 290 290 290 290 290 290 290 290 290 290 290 290 289 289 289 288 288 288 288 288 287 287 287 287 287 287 287 287 288 288 289 289 289 288 287 286 286 287 288 288 288 289 289 289 289 289 289 288 289 289 289 289 289 289 289 289 289
Wind_Speed
17 18 22 24 23 22 21 20 20 20 20 19 18 20 22 22 21 19 18 18 18 17 16 16 16 16 16 15 15 15 16 17 16 16 17 19 19 18 17 17 17 17 17 16 16 17 17 16 15 15 15 15 16 15 13 12 12 15 20 24 25 22 21 19 15 12 14 15 14 14 13 11 10 8 8 10 10 9 7 7 6 6 5 6 6
13 14 17 19 20 20 19 18 21 20 19 18 17 20 22 21 20 19 18 18 17 16 16 16 15 16 17 17 16 16 17 17 17 17 18 19 19 18 17 16 15 15 15 14 14 15 16 15 14 13 12 13 13 13 13 12 12 12 17 24 27 24 21 20 19 16 15 16 18 16 14 14 11 9 9 8 8 8 8 8 7 6 5 3 3
10 10 10 12 15 18 19 21 22 21 19 18 17 18 20 21 19 19 19 19 17 16 16 16 16 17 18 17 17 17 17 17 17 17 17 17 17 16 15 15 15 15 15 14 13 13 14 14 13 12 11 11 12 12 13 13 12 13 17 24 26 23 21 19 18 19 17 17 19 18 15 15 13 10 9 7 6 7 7 7 7 8 7 4 2
13 14 14 13 15 19 21 23 23 22 20 18 15 16 20 21 20 20 20 19 18 17 16 16 17 18 18 17 17 16 16 16 16 15 15 16 17 16 16 15 15 15 15 15 14 13 13 13 12 12 12 12 13 13 15 15 14 16 20 23 23 21 21 18 17 20 20 18 18 18 16 15 13 11 11 9 9 9 8 9 9 9 9 6 4
16 18 20 21 19 19 21 21 21 21 18 15 16 19 21 21 20 20 20 19 18 17 17 16 17 18 18 17 17 16 15 16 16 14 14 17 17 17 16 15 14 14 13 13 12 12 11 11 11 11 11 12 13 13 14 16 16 18 20 21 19 18 18 17 16 18 19 20 19 17 16 14 12 12 13 12 12 10 8 9 10 9 8 8 6
14 16 18 21 21 18 18 18 18 18 16 16 19 20 19 20 20 19 18 19 18 17 17 18 18 18 18 17 18 18 16 16 17 15 14 16 17 16 15 14 13 14 13 11 10 9 9 10 10 10 10 11 11 10 13 16 17 18 18 18 17 17 16 16 15 15 17 18 18 16 16 14 13 12 13 13 12 9 7 8 9 9 8 7 5
12 14 16 19 19 17 16 16 17 18 19 20 20 19 19 20 20 19 19 20 20 18 18 19 18 19 19 19 19 20 18 16 17 17 16 15 16 16 16 14 13 15 14 12 11 10 9 9 10 10 9 10 10 10 11 14 17 18 18 17 17 16 15 15 15 16 17 18 17 16 15 13 11 11 13 14 12 9 9 11 11 9 7 4 2
12 16 18 19 19 17 17 17 18 19 21 21 20 19 20 20 19 18 18 20 22 20 19 21 20 19 21 21 20 21 19 17 18 19 18 17 16 16 16 14 14 15 15 13 12 11 10 11 11 10 10 9 9 9 10 12 15 17 17 16 16 15 14 14 14 14 16 17 16 15 14 11 8 8 11 13 11 10 10 10 9 7 5 3 0
12 16 18 18 17 17 18 19 21 21 21 21 20 19 19 18 17 17 15 17 21 20 18 19 20 19 19 21 22 22 21 19 19 20 20 19 18 17 17 16 15 16 15 14 13 13 12 13 13 12 12 11 10 10 10 10 12 13 14 14 13 13 13 13 12 12 12 12 12 13 12 9 7 9 11 10 9 10 9 8 7 5 3 1 2
11 14 16 15 14 14 16 19 22 21 20 20 19 18 17 15 14 14 13 14 17 18 17 18 19 17 17 19 21 22 22 21 20 20 19 19 18 18 18 17 16 15 15 15 14 14 14 14 13 13 13 13 13 12 11 10 10 11 12 12 11 10 9 10 10 10 11 10 10 11 10 8 8 11 12 10 9 9 8 7 5 2 1 3 4
13 14 14 13 11 10 11 14 16 17 18 17 16 16 15 13 10 10 9 9 12 15 16 18 18 16 16 16 17 20 21 20 19 19 18 19 19 18 18 17 16 15 15 15 15 15 15 15 14 14 14 15 15 14 14 12 11 10 10 11 11 9 8 9 10 11 11 11 10 10 10 9 9 10 11 11 10 8 6 4 2 1 4 5 5
13 13 13 12 10 9 8 8 9 11 13 14 13 12 11 10 9 7 7 6 8 10 13 15 16 16 15 15 15 16 17 17 17 17 17 18 18 18 18 18 17 17 16 15 15 16 17 17 17 16 16 17 17 17 16 14 12 10 9 9 10 9 9 11 11 11 11 11 10 9 9 10 11 10 10 10 8 5 3 1 2 3 4 4 5
16 14 13 13 12 10 7 5 5 5 7 8 8 8 7 7 7 6 5 4 4 6 9 11 13 14 15 15 15 14 14 14 15 14 15 16 17 18 18 18 17 16 16 15 16 16 17 18 18 18 18 18 19 20 18 16 14 12 11 11 11 10 10 10 9 8 7 8 8 9 9 10 10 10 9 7 6 3 1 2 4 4 4 5 6
25 21 17 16 14 10 6 3 1 2 5 5 4 5 5 5 5 5 5 4 3 4 5 7 9 11 12 13 13 14 14 14 13 13 14 15 16 17 17 17 16 15 16 17 18 18 18 18 19 19 20 20 20 20 20 18 16 14 12 13 13 13 12 10 8 7 6 6 6 6 7 7 7 7 7 5 4 2 3 4 5 6 6 6 7
30 28 25 23 21 17 13 10 6 4 4 4 3 3 3 3 3 4 5 6 7 6 5 6 8 9 10 11 12 13 14 14 14 15 16 17 17 18 18 18 17 17 18 19 19 19 18 19 20 20 20 21 20 20 20 19 17 14 14 14 14 13 13 11 10 9 8 8 8 7 7 6 5 5 5 3 3 4 5 6 7 7 6 6 5
29 29 28 26 25 24 22 20 17 13 9 7 6 4 3 3 2 1 3 5 6 6 6 8 10 11 11 12 14 14 13 13 14 15 17 18 18 18 19 19 18 18 19 19 19 18 17 18 19 18 18 20 20 20 19 18 16 15 15 15 14 13 12 11 10 9 7 6 6 6 7 6 6 5 3 2 4 5 6 6 6 5 5 5 3
27 27 27 26 25 25 24 24 24 21 18 15 12 10 9 9 7 5 6 6 6 6 6 8 10 11 12 13 15 16 15 14 15 16 16 17 17 17 19 19 19 19 20 19 18 17 16 16 17 16 17 19 20 19 19 18 16 16 16 15 13 12 11 10 9 7 6 5 5 6 7 6 5 3 2 3 5 5 5 5 4 4 4 3 2
26 25 25 24 23 23 22 22 22 22 20 19 16 15 14 14 12 9 7 8 9 10 11 11 12 12 12 13 14 16 16 15 16 17 17 17 17 17 18 19 20 20 20 19 17 15 14 15 15 16 19 19 18 18 19 18 18 17 16 15 15 14 13 12 11 10 9 8 8 8 7 5 3 2 2 3 3 3 3 3 3 3 3 2 2
24 23 22 21 21 20 20 20 20 20 19 18 17 17 17 16 15 13 10 8 8 9 9 11 13 14 14 14 15 16 16 16 15 17 17 18 18 17 17 19 19 19 19 19 17 15 15 14 14 17 19 18 17 18 18 19 20 18 16 16 17 16 15 14 12 10 10 9 9 7 6 4 3 3 3 3 3 3 3 3 2 2 2 2 3
22 20 19 19 19 19 18 18 18 18 17 16 16 16 17 16 15 14 13 12 11 11 10 10 11 13 15 16 17 17 16 15 14 16 16 17 18 18 18 19 18 17 17 18 17 16 16 16 15 17 19 19 18 18 18 18 19 18 18 18 18 17 16 14 12 10 9 9 8 7 6 5 4 3 3 3 3 2 2 1 1 1 1 1 3
19 19 18 17 17 17 17 17 16 16 16 15 14 13 14 15 14 14 14 14 13 13 13 13 13 13 13 15 17 18 18 15 13 13 14 14 15 16 18 19 18 15 15 16 17 18 19 19 18 18 20 21 20 18 17 17 17 18 18 17 16 15 15 14 13 11 9 8 7 7 6 4 3 2 2 1 2 2 2 2 2 1 0 1 2
18 18 17 17 17 16 16 15 15 15 15 15 14 14 14 13 13 13 13 13 13 13 14 14 15 15 15 14 14 15 18 18 15 13 13 13 14 15 17 18 18 16 15 15 18 21 22 21 20 21 23 23 21 18 17 16 16 16 15 15 15 15 15 14 13 11 9 8 8 7 5 5 5 5 5 5 4 4 3 3 2 1 2 2 3
17 17 17 17 16 16 15 14 14 14 14 14 14 14 14 13 13 13 13 13 13 13 13 13 13 14 15 15 14 13 15 18 18 17 16 14 15 17 18 19 20 19 18 17 19 22 24 25 25 25 26 25 23 20 18 16 16 15 15 16 17 16 14 13 12 11 10 9 9 7 7 7 8 8 7 6 5 4 3 2 1 1 2 4 5
15 16 17 17 17 16 15 14 14 14 14 13 13 13 13 12 12 12 12 13 14 15 14 13 13 13 13 14 14 13 13 15 18 20 20 18 19 19 19 20 21 20 19 19 19 23 27 29 29 27 26 24 22 20 18 17 17 16 16 17 17 15 14 12 12 11 10 10 9 9 10 9 8 7 6 5 5 3 2 0 1 3 5 6 7
15 16 17 17 17 17 15 14 14 14 14 15 15 15 14 14 12 11 10 10 12 14 15 15 15 15 15 15 14 12 11 12 15 18 19 19 19 21 21 22 20 19 20 20 19 23 28 29 28 26 25 24 24 22 20 19 18 17 17 16 16 15 13 12 12 11 10 10 10 11 11 9 7 6 5 4 3 2 2 4 6 7 9 10 10
15 15 15 16 16 16 15 14 14 14 13 14 15 15 16 15 14 14 13 13 13 13 14 15 15 15 14 14 15 14 12 11 11 13 15 14 14 16 18 19 18 18 19 19 19 23 28 29 29 27 24 23 23 22 21 20 19 18 16 15 13 12 11 12 12 11 11 11 11 11 10 8 6 5 4 2 2 4 6 8 10 11 12 13 13
14 13 14 14 15 15 15 14 14 13 13 14 14 14 15 15 15 15 16 16 15 15 15 15 15 15 14 14 14 14 14 14 12 11 10 8 7 7 8 9 9 10 13 15 19 22 26 29 29 25 21 20 20 20 20 20 19 17 15 13 11 11 11 11 10 10 10 11 11 10 9 7 5 3 1 2 5 6 8 10 12 13 14 14 13
12 12 12 13 14 15 15 14 14 13 13 13 13 13 14 13 13 13 14 15 15 14 14 15 16 15 14 13 13 13 12 13 13 12 11 8 6 6 7 8 8 7 8 11 15 18 22 24 24 24 24 23 21 20 20 19 17 16 15 13 12 11 10 9 8 8 9 10 10 9 8 6 3 1 1 4 6 8 10 12 12 13 13 13 13
12 12 12 13 14 15 15 14 14 13 13 13 12 12 12 11 10 9 11 12 12 11 11 12 14 14 13 12 13 13 12 10 10 12 13 11 10 9 9 10 9 7 6 8 9 12 17 19 18 20 23 22 20 19 18 17 16 16 14 13 12 11 9 7 7 9 10 9 8 7 6 4 2 1 1 4 6 8 10 11 11 11 12 11 12
12 12 13 14 14 14 14 14 14 14 13 13 12 12 11 11 10 10 12 12 10 9 8 8 10 11 11 11 11 11 12 10 8 9 10 11 12 11 9 9 9 9 10 10 9 11 16 20 19 19 19 20 20 19 18 17 17 16 14 13 12 11 9 7 8 9 9 7 6 5 4 3 2 1 2 5 7 8 9 9 9 10 10 10 11
12 14 15 14 13 13 14 15 15 15 14 13 14 15 15 15 14 13 13 13 13 11 9 7 7 8 9 10 10 10 10 10 10 9 9 9 11 12 11 10 9 10 13 14 14 15 20 24 24 22 20 20 21 20 18 18 16 15 14 14 13 11 10 10 9 9 8 6 4 3 3 2 1 1 4 6 7 7 8 8 8 9 9 9 10
13 14 14 13 13 14 15 16 16 15 15 15 16 17 17 18 18 16 15 14 13 12 11 10 9 8 8 8 10 11 10 10 10 10 9 9 10 12 13 13 11 10 13 15 15 18 22 22 22 22 22 22 21 20 19 16 13 12 14 16 15 13 12 11 10 8 6 4 4 3 2 1 1 3 5 6 6 6 7 8 8 8 8 7 9
10 12 13 13 13 14 15 16 16 15 16 16 16 16 17 17 18 19 20 18 15 13 12 12 12 11 10 8 8 10 11 10 10 10 10 10 9 10 13 16 14 13 15 16 16 20 24 23 23 24 25 23 22 20 17 15 14 16 18 18 17 15 13 11 9 7 5 4 3 2 1 0 1 3 4 5 5 6 7 7 7 7 6 7 9
9 10 10 11 12 13 14 15 15 14 15 16 17 17 17 16 16 18 20 21 21 19 17 16 15 14 11 8 6 7 9 10 9 9 10 10 9 9 11 14 15 15 17 19 19 22 26 27 27 27 25 22 20 19 18 18 19 20 20 18 16 15 13 11 10 8 6 4 3 2 2 1 1 1 2 2 3 5 5 5 5 5 6 7 10
7 7 8 10 11 12 13 13 13 13 14 16 17 17 16 16 15 15 16 17 19 21 22 22 19 13 7 6 5 6 8 10 8 6 8 9 8 8 9 13 17 19 20 21 22 23 26 27 27 27 26 23 22 22 23 24 24 24 22 20 18 16 14 13 11 9 7 6 5 4 3 1 0 1 2 3 3 3 3 3 3 5 6 8 11
6 6 8 9 10 11 12 11 11 12 13 14 15 15 15 15 15 15 15 15 16 17 19 21 19 13 6 4 6 7 8 10 9 6 5 6 7 7 8 12 17 21 22 22 21 21 23 24 24 24 23 23 23 24 25 25 25 24 23 21 19 18 16 14 13 11 9 8 7 5 3 1 1 2 3 3 2 2 2 3 4 5 6 8 12
6 7 8 9 9 11 11 10 10 11 11 12 14 15 15 15 15 15 15 15 15 16 16 16 16 13 9 7 8 8 9 11 11 9 6 5 6 6 7 10 14 18 21 22 22 22 23 24 24 22 22 23 24 24 23 23 23 22 20 20 20 19 16 14 13 11 10 9 7 4 2 1 3 3 3 4 4 3 3 3 3 5 7 9 11
6 7 8 8 9 9 10 10 10 10 10 11 13 14 14 15 15 14 14 14 13 14 15 14 13 12 11 10 10 10 10 11 11 10 8 6 5 5 6 8 10 14 17 19 20 20 22 22 21 20 21 23 24 24 23 22 22 21 21 21 20 18 16 15 13 11 9 8 6 3 1 2 3 3 3 5 4 2 2 3 4 6 8 10 11
7 8 8 8 8 8 9 10 11 11 10 10 11 12 13 14 15 14 14 13 12 12 13 13 11 10 11 10 10 11 10 9 9 8 7 6 5 5 5 6 7 8 11 13 13 13 15 17 18 18 18 19 21 22 23 23 23 23 23 22 20 18 17 15 13 11 9 7 5 3 1 1 1 0 3 4 3 2 2 5 6 7 9 11 12
7 7 8 9 9 8 8 9 11 12 11 10 10 12 13 14 14 14 14 14 12 11 10 10 10 9 9 8 9 9 6 5 5 5 4 4 5 6 4 2 2 4 7 8 7 7 9 13 15 14 14 17 19 21 22 23 23 23 22 21 20 18 16 14 13 11 9 7 5 3 2 1 2 2 2 3 3 1 4 6 6 7 10 12 13
5 6 8 10 10 9 8 9 11 11 11 11 11 12 12 12 12 12 12 13 13 12 10 9 9 8 7 6 5 4 2 3 5 5 4 3 5 6 4 4 6 7 8 8 9 9 10 13 16 18 21 23 23 22 21 20 20 20 19 18 17 17 16 14 13 11 8 6 4 3 3 3 2 3 3 3 1 2 5 5 6 8 11 13 14
4 5 7 10 11 10 9 8 9 10 11 11 12 12 11 11 11 12 12 13 14 15 14 13 11 8 6 5 3 2 2 3 5 5 5 4 5 7 8 9 11 12 12 12 12 13 15 18 20 22 23 23 22 22 21 20 19 18 17 16 16 16 15 13 11 8 6 5 5 4 4 3 3 4 4 3 1 2 3 5 7 10 12 14 15
4 5 7 9 12 12 9 7 8 9 10 11 12 12 12 11 12 13 14 15 15 16 17 17 15 13 11 8 6 6 6 6 6 7 6 5 6 8 10 10 10 10 10 10 10 11 13 16 18 19 20 21 21 21 20 19 17 16 16 16 15 13 11 9 7 6 6 5 4 4 3 4 4 5 5 3 1 2 3 5 8 11 13 14 14
4 6 7 8 10 12 10 8 7 7 8 9 10 11 12 12 12 14 14 15 15 17 17 17 17 17 16 15 13 13 13 13 12 12 11 10 10 11 11 10 9 9 11 13 13 14 16 19 20 19 20 21 21 19 18 17 15 13 13 12 11 9 8 6 5 5 5 5 4 2 2 4 6 7 6 3 2 2 3 6 11 13 13 13 12
5 5 6 7 8 10 11 11 10 8 6 7 9 10 11 12 12 13 14 14 15 16 17 17 18 19 18 18 18 18 18 17 17 17 16 16 16 16 16 15 14 15 18 20 20 20 21 22 22 21 21 21 19 18 16 15 13 12 11 9 9 8 8 6 4 4 4 5 4 2 2 4 6 7 5 3 3 3 5 9 12 13 12 12 11
8 6 6 6 6 7 8 10 11 10 9 8 8 9 10 11 12 13 13 14 14 16 17 17 18 19 20 20 20 20 20 20 21 21 21 21 21 21 21 22 22 24 25 25 25 23 22 21 21 20 20 19 17 16 15 14 13 12 11 10 9 8 8 6 4 3 4 5 4 2 2 5 7 5 2 1 3 3 6 10 12 12 12 12 11
10 8 7 6 5 6 6 7 8 9 10 9 8 8 9 10 11 12 13 13 14 15 16 17 18 19 21 22 22 23 24 24 25 25 25 25 26 26 25 25 25 25 24 23 23 22 20 19 19 18 17 16 15 15 14 13 12 11 10 8 7 6 5 4 4 3 3 4 3 3 4 6 6 3 1 1 3 4 6 9 11 12 11 10 10
11 10 8 7 5 5 6 6 6 7 8 9 9 9 9 9 10 11 11 12 13 14 15 16 18 19 20 21 22 23 24 25 25 26 26 26 26 26 25 25 24 23 21 21 20 19 18 17 15 14 14 14 13 13 12 11 9 8 7 6 5 4 3 3 3 3 4 4 4 4 6 7 5 3 1 1 2 4 6 8 10 11 11 10 11
11 10 10 9 7 6 6 6 6 6 6 7 8 9 9 9 10 10 10 10 11 12 14 15 16 17 17 18 18 19 19 19 19 19 19 19 19 19 19 18 18 17 17 17 16 15 14 13 12 11 11 11 11 10 9 8 7 5 5 4 3 2 3 3 3 4 4 5 5 5 6 6 4 2 0 1 1 2 4 7 9 11 12 12 12
12 11 11 10 9 8 8 7 6 5 5 5 6 7 8 9 9 9 9 9 10 11 12 13 14 14 14 14 14 14 14 14 14 14 14 14 13 13 13 13 13 13 13 13 13 12 11 10 9 9 8 8 8 7 6 5 5 4 4 3 3 3 3 4 4 4 5 5 6 6 6 4 2 1 1 1 1 2 3 5 8 10 12 12 13
13 13 12 11 11 11 10 9 7 6 6 5 5 5 5 7 7 7 7 7 8 9 11 11 11 11 12 12 13 13 13 13 13 13 12 12 12 11 11 12 12 12 12 11 10 10 9 8 8 8 7 7 6 6 5 5 5 4 4 4 3 3 4 4 5 5 6 6 6 5 4 2 1 1 1 2 2 3 4 3 6 10 10 9 11
Wind_Direction
174 168 167 165 164 165 166 167 169 169 171 172 170 167 166 166 165 165 166 166 166 167 170 172 169 165 162 160 158 158 159 160 161 160 157 153 150 147 145 142 137 134 134 134 137 141 140 135 129 127 129 134 143 152 157 162 172 185 192 191 187 185 181 168 153 160 183 190 180 171 170 170 171 171 159 153 158 164 168 169 163 145 124 104 90
160 159 159 157 159 164 167 168 169 167 167 166 163 163 167 167 166 166 167 167 168 170 171 172 171 168 166 166 167 166 164 164 165 163 157 153 152 151 150 151 148 146 144 140 138 140 141 140 136 136 141 142 145 154 161 164 169 179 192 191 184 182 185 177 162 160 175 187 186 181 183 187 186 186 183 170 169 179 186 193 195 188 172 140 115
135 133 125 118 134 153 163 167 167 165 162 157 155 163 170 169 168 170 170 169 170 171 170 172 174 173 171 171 173 172 170 169 169 168 164 159 158 158 159 158 155 156 156 152 149 147 145 144 139 139 145 146 149 158 165 166 168 172 178 180 177 177 185 184 171 166 169 178 187 188 190 196 200 204 203 191 191 202 205 210 214 211 209 206 181
165 166 157 136 133 146 157 164 165 162 158 154 161 176 177 174 173 173 172 171 172 171 172 174 174 174 175 177 179 179 176 175 174 175 176 172 166 163 166 167 163 162 162 161 163 164 161 155 145 143 147 145 145 155 165 168 169 168 167 169 172 176 184 188 181 174 169 173 185 191 195 201 209 217 217 210 214 226 233 237 235 228 222 221 222
156 162 166 163 158 156 159 163 162 159 156 160 175 182 179 177 177 175 172 172 173 175 176 177 175 175 179 182 183 182 180 181 181 178 176 176 172 168 171 174 173 171 169 169 171 174 176 171 159 154 156 155 151 152 161 168 171 172 170 171 176 179 183 188 188 183 177 176 181 186 195 206 214 220 221 218 217 220 228 233 229 219 211 213 224
137 144 160 169 166 158 158 160 156 155 161 174 183 183 181 180 178 176 174 173 177 182 184 186 186 184 183 183 183 184 183 186 186 179 171 174 177 177 176 176 178 182 181 177 174 174 177 179 176 173 173 173 171 164 163 168 173 176 175 175 179 184 185 187 189 188 186 187 187 187 194 204 212 216 215 216 217 208 189 183 182 182 187 197 212
143 157 166 165 160 156 156 158 158 161 170 179 184 185 185 186 184 181 180 177 178 184 188 191 194 194 191 186 185 188 187 185 184 181 179 180 181 180 180 179 179 183 184 181 181 183 182 184 185 188 192 191 188 184 176 172 171 170 170 169 172 178 184 189 193 194 194 195 196 197 199 201 208 212 210 213 221 214 182 160 152 156 165 166 179
148 162 161 151 149 154 157 160 167 174 177 180 185 186 186 190 190 186 185 182 182 186 190 192 195 200 199 195 192 192 190 188 187 186 186 187 184 182 184 186 181 179 181 182 187 192 194 195 197 201 206 204 199 196 191 181 172 167 164 164 165 165 166 173 183 189 194 199 204 209 210 210 209 203 197 200 205 199 184 169 157 157 159 153 300
142 148 147 142 141 146 155 166 175 178 177 179 184 185 186 192 194 190 190 189 188 192 195 196 200 206 206 202 199 197 195 195 195 194 193 191 191 191 192 194 192 187 187 188 192 197 197 199 204 209 210 209 208 207 201 195 188 180 174 171 169 166 162 163 165 166 172 183 193 200 202 200 191 180 177 182 185 180 180 184 178 173 180 216 332
124 125 128 130 133 142 159 173 177 174 172 175 180 182 183 189 194 195 200 202 201 203 206 206 209 213 212 206 203 201 200 199 197 197 197 195 195 195 195 198 200 200 200 199 201 204 205 207 210 213 215 213 211 211 211 209 206 201 198 196 193 189 182 175 170 166 163 160 164 173 172 159 155 167 170 173 176 173 174 179 172 170 296 319 326
101 104 109 115 122 137 160 176 178 176 176 176 178 178 177 176 178 185 196 207 211 212 215 214 211 211 211 206 202 202 202 202 201 200 201 200 199 198 199 203 207 210 215 217 218 219 221 225 226 225 224 221 215 213 214 216 215 211 210 213 215 218 214 200 188 180 172 163 157 163 162 149 144 154 159 159 163 166 164 163 157 339 335 333 321
87 91 95 99 108 122 144 165 172 176 179 177 174 173 172 169 164 165 172 187 198 201 204 206 203 202 203 202 201 202 205 209 210 210 210 210 210 211 213 217 219 220 224 229 232 234 238 241 240 236 234 230 223 218 214 211 211 211 211 214 216 216 217 211 199 189 181 170 162 162 164 159 154 155 158 158 160 162 156 133 345 332 333 327 305
75 87 92 91 97 109 121 141 155 156 161 170 177 180 178 172 166 162 160 167 189 197 196 196 196 197 199 202 207 209 212 213 212 215 219 220 222 224 224 225 226 226 230 235 238 241 245 247 245 241 237 231 224 218 213 207 203 207 215 220 217 209 207 207 202 197 192 183 174 171 172 171 169 170 173 176 179 184 219 310 324 321 316 312 305
68 76 82 80 82 88 89 86 97 111 113 126 160 185 196 201 199 195 188 182 193 210 208 208 208 204 206 213 217 217 218 218 219 227 232 229 228 228 226 226 230 236 244 247 247 247 247 247 247 242 235 228 220 213 210 208 208 213 220 221 216 210 207 208 206 207 212 214 207 197 189 186 186 188 190 195 212 244 292 307 314 312 307 310 315
64 66 69 70 71 70 67 57 42 41 74 86 93 145 176 197 208 218 228 227 224 223 234 246 240 229 227 231 229 224 223 225 231 238 239 236 236 235 233 235 241 247 249 250 251 251 250 247 245 241 233 225 216 209 208 211 211 213 214 212 209 208 209 214 219 223 229 236 238 235 224 215 210 208 208 218 263 297 307 307 306 302 300 307 313
59 60 60 61 62 60 57 53 48 45 47 46 38 34 35 27 22 280 265 260 246 238 246 257 257 254 251 250 250 247 240 237 240 240 236 237 240 243 244 245 246 249 251 251 251 250 246 240 236 233 226 216 208 203 203 204 201 198 199 200 200 203 206 209 212 215 217 224 231 230 220 210 204 207 219 262 301 310 307 304 303 296 292 298 293
52 53 52 51 52 52 50 47 43 41 43 45 40 33 26 18 5 334 302 290 281 274 267 260 258 257 254 252 255 257 253 249 248 244 239 238 241 244 247 247 247 250 253 252 248 242 234 228 223 217 211 205 199 195 194 193 190 189 192 192 190 189 187 184 183 179 170 167 173 179 180 181 186 207 262 296 302 302 298 298 299 290 289 292 285
44 46 46 45 45 46 47 46 41 37 35 35 32 27 24 22 18 6 334 302 290 284 277 269 264 260 258 257 260 262 260 255 252 251 248 247 247 247 246 246 248 249 247 243 239 232 224 219 213 206 202 199 195 192 193 195 195 194 192 189 185 182 178 175 171 162 155 156 163 168 172 179 200 243 266 269 273 278 290 299 295 286 294 308 328
38 39 39 40 41 40 40 41 39 36 32 27 22 16 12 10 13 15 11 354 333 319 303 284 271 264 264 265 266 266 264 259 255 255 253 251 250 247 242 243 244 240 234 232 231 225 220 215 208 203 202 199 196 193 193 196 199 200 199 195 191 189 185 180 176 170 167 168 170 169 169 176 190 205 217 232 251 271 287 289 276 281 302 322 345
38 36 34 34 36 36 35 33 32 30 27 24 22 18 11 5 2 3 3 359 353 348 343 329 308 290 279 274 271 269 268 264 257 251 251 250 247 240 236 238 237 228 224 227 229 225 222 217 210 206 205 203 199 195 194 197 202 206 206 205 203 196 186 178 174 170 166 162 155 152 156 167 184 205 225 246 265 278 274 234 197 197 272 326 2
42 41 35 31 30 29 29 28 25 23 21 18 18 17 14 9 4 1 356 350 345 342 340 339 333 322 309 298 286 275 270 270 261 249 248 245 236 231 233 235 232 225 224 230 232 229 224 221 213 206 204 203 200 198 199 202 206 208 208 210 209 198 183 174 167 161 156 150 147 152 164 177 185 187 180 151 131 128 130 131 130 128 120 13 4
44 45 42 37 32 28 25 24 21 18 16 14 13 11 9 8 6 3 358 350 345 342 338 334 330 325 321 317 306 288 275 271 264 249 245 242 230 224 228 231 230 229 228 230 231 227 221 218 213 203 200 201 199 198 202 204 205 204 201 199 197 187 175 167 161 156 153 155 158 163 168 167 156 145 137 129 122 117 113 105 97 79 36 8 351
42 44 43 41 37 32 28 25 22 20 17 15 13 8 4 1 360 359 358 355 351 349 348 346 339 332 325 317 312 304 290 281 270 256 246 240 231 223 223 229 232 231 228 230 233 227 218 212 206 198 195 196 196 196 198 199 197 193 184 179 179 174 166 161 160 160 161 164 167 162 151 149 148 140 133 130 125 120 117 108 86 12 351 346 341
38 40 40 39 38 35 33 31 30 28 25 21 18 16 11 6 0 356 355 357 358 357 359 2 3 0 351 334 322 313 302 293 283 268 255 245 239 234 231 232 233 231 230 231 231 227 218 207 198 192 191 193 195 194 193 190 186 178 171 168 167 167 167 168 170 172 170 167 163 150 140 143 146 138 132 132 132 134 132 62 343 330 329 329 329
32 35 34 33 32 31 32 35 34 34 33 32 32 30 27 24 20 14 8 9 8 3 1 4 7 10 8 0 350 332 309 293 283 274 261 248 241 239 237 236 237 236 235 233 231 228 220 208 198 195 196 195 193 186 180 178 175 169 165 165 165 168 172 173 174 174 165 155 150 144 139 138 134 129 126 123 118 87 16 358 348 341 337 334 331
28 31 32 31 29 26 27 30 30 31 32 34 36 37 36 35 34 32 31 30 26 16 7 2 360 357 356 356 356 350 336 317 297 281 271 259 247 240 237 237 240 240 238 235 233 229 219 207 200 196 188 182 181 175 167 165 164 161 160 161 161 165 168 168 170 167 155 148 149 146 142 138 133 130 126 103 14 358 357 351 345 343 341 339 337
28 27 28 29 28 27 26 25 26 27 26 25 28 31 31 31 32 35 35 32 29 25 20 14 6 357 348 341 339 342 341 335 326 312 298 288 272 246 230 228 241 254 251 240 231 225 215 205 198 192 182 176 177 172 164 160 157 153 151 149 151 155 158 161 166 163 154 152 150 145 141 140 141 143 128 347 347 355 355 347 343 343 341 341 343
31 29 28 29 28 27 27 25 25 26 25 24 24 23 23 25 29 35 33 27 23 21 19 17 12 4 353 341 331 326 326 329 328 325 318 311 290 262 252 250 258 276 273 247 226 212 203 195 187 182 178 174 168 161 157 155 152 146 143 144 148 151 153 156 158 155 153 152 148 142 141 145 152 166 325 340 349 352 347 342 343 344 344 346 347
42 40 34 29 25 22 23 24 23 24 25 24 23 23 22 23 23 21 18 17 16 11 5 6 7 4 357 351 341 327 316 319 324 319 310 303 295 290 283 269 258 253 255 249 223 194 187 184 176 171 168 162 156 155 155 152 147 143 141 144 150 152 154 161 159 151 150 151 147 142 145 152 161 170 342 345 348 346 341 342 346 346 345 347 344
47 39 29 22 21 20 21 21 19 20 23 24 20 16 12 8 4 356 351 351 353 353 348 347 351 353 352 352 350 334 311 299 297 296 292 290 293 297 295 281 267 254 242 236 222 197 190 186 181 177 171 165 164 165 160 154 148 143 142 151 160 162 165 172 168 158 156 157 153 150 156 167 175 196 338 343 345 342 339 342 346 344 341 339 333
35 26 21 21 23 23 20 18 16 17 21 21 15 7 358 349 345 345 343 339 337 338 338 327 322 329 335 336 340 335 312 289 276 270 269 274 281 283 279 278 277 263 243 230 215 201 192 185 182 183 183 180 177 171 164 160 157 151 153 162 172 178 179 177 171 166 164 163 161 165 178 189 206 327 340 344 345 342 339 339 337 333 330 330 329
28 21 18 18 18 16 14 12 13 13 12 10 7 3 358 350 343 339 340 340 338 336 335 328 316 309 309 316 328 335 326 301 279 267 263 268 272 268 263 264 265 253 236 227 214 198 189 184 184 188 190 190 186 179 173 175 178 176 173 173 176 183 184 176 169 167 167 165 162 170 191 228 305 330 339 342 341 340 338 332 325 321 320 327 335
16 11 9 8 10 11 10 7 6 7 7 8 6 5 5 2 352 342 338 340 342 339 334 330 324 315 303 296 310 331 336 321 290 267 262 269 275 266 253 250 248 235 221 216 209 197 193 196 201 201 198 194 190 187 188 193 193 187 182 177 176 178 177 170 166 166 166 166 165 170 189 232 319 333 345 350 344 336 330 322 318 316 315 324 336
0 357 359 1 5 10 10 5 2 3 6 10 10 9 8 7 0 352 345 342 342 341 338 335 333 328 315 299 302 328 339 332 307 271 259 266 274 270 253 239 233 226 220 219 214 205 201 205 209 208 204 199 196 197 199 195 189 185 182 180 177 174 169 167 169 172 174 176 176 173 182 194 239 306 329 335 324 317 315 311 309 311 315 327 339
358 351 352 359 4 8 8 4 2 5 8 10 10 9 7 5 2 358 351 343 339 337 336 338 342 341 326 309 323 342 346 342 327 284 263 267 273 275 261 238 227 222 221 220 217 212 211 214 215 214 210 203 200 201 198 191 189 190 186 180 176 174 171 168 167 167 168 170 168 164 165 165 169 277 296 308 310 308 305 301 304 318 331 339 340
3 349 348 360 7 9 8 6 6 10 12 11 9 8 9 7 4 358 354 349 344 338 334 337 344 351 356 343 339 345 351 352 347 324 288 282 282 277 264 245 235 230 225 221 218 217 219 224 227 226 219 208 203 204 200 193 190 191 188 182 178 176 172 165 161 159 159 161 163 161 152 127 353 334 331 338 343 334 320 317 325 337 340 336 332
10 358 356 5 10 11 12 12 10 11 13 14 12 12 11 8 4 359 354 350 347 341 337 338 342 349 0 8 358 350 350 354 354 349 336 318 303 291 275 258 246 239 234 232 232 231 233 236 239 237 228 217 210 208 203 196 192 191 190 185 178 172 166 161 159 159 158 157 156 150 144 313 324 331 339 348 348 340 334 338 341 337 329 326 327
26 17 14 15 14 13 14 14 12 14 19 19 15 12 11 8 5 1 355 349 346 343 340 340 339 334 337 346 348 344 343 346 351 353 347 334 324 312 293 278 265 253 248 246 246 244 242 239 235 231 226 220 214 206 198 193 188 185 184 179 170 164 161 159 156 156 156 155 155 159 212 298 316 332 346 353 357 359 358 349 337 328 327 329 330
48 37 31 27 22 16 15 19 19 18 20 20 14 13 15 13 10 6 360 355 353 347 341 339 335 324 319 323 327 331 338 345 347 347 345 341 340 334 311 293 280 262 249 244 243 243 239 230 225 223 219 211 200 187 178 174 171 170 171 169 164 160 159 157 155 155 157 160 165 177 229 278 272 19 13 26 55 74 355 344 340 335 333 332 330
61 52 47 42 37 28 24 29 30 26 23 23 20 21 22 18 13 11 8 4 2 356 346 339 332 324 318 317 318 322 337 357 355 349 350 356 0 1 351 319 257 229 224 221 220 223 219 211 207 201 184 168 159 154 153 154 156 160 163 164 160 156 155 155 156 160 162 167 178 190 212 211 164 118 69 77 92 26 338 341 340 332 331 331 330
70 66 61 52 46 39 36 40 41 39 37 37 34 33 33 28 23 21 19 16 15 15 12 4 352 338 329 323 319 322 350 23 21 24 40 50 41 42 65 111 129 141 155 154 137 127 134 145 148 145 141 140 143 145 147 151 155 157 159 159 155 151 151 153 157 162 166 175 190 200 203 192 162 139 139 146 150 323 329 336 335 331 334 339 339
82 86 76 61 52 45 42 46 50 49 48 47 46 46 44 41 38 36 36 35 35 36 38 38 35 28 15 3 3 26 39 25 29 47 72 93 90 92 109 122 123 124 130 131 126 122 122 123 126 131 135 139 144 148 150 152 153 154 154 154 151 149 149 151 157 166 177 187 196 201 200 193 179 169 172 184 240 315 322 330 337 341 343 346 347
107 100 88 70 57 51 50 54 57 55 53 53 55 54 52 51 51 52 53 51 49 48 49 50 52 57 61 63 69 76 72 64 64 74 95 117 118 116 124 132 133 131 131 132 137 143 139 129 127 133 139 141 143 145 147 148 150 151 152 151 148 145 148 156 166 179 189 191 191 195 198 200 195 185 179 191 273 307 310 327 342 350 351 351 352
145 112 101 84 65 58 59 60 59 60 60 58 58 57 56 57 59 60 62 62 60 58 59 60 63 69 74 77 81 83 82 83 88 93 103 113 116 119 127 135 138 139 138 137 141 144 138 130 129 135 139 139 139 140 139 139 141 144 145 142 138 135 139 151 164 174 180 177 171 175 204 216 207 194 184 196 252 281 315 341 352 356 356 355 355
178 138 124 109 79 65 62 58 55 58 62 61 58 57 58 61 65 66 68 70 70 71 71 71 72 75 76 77 78 80 81 86 91 94 100 105 110 117 126 129 129 131 133 134 136 136 132 130 132 136 136 134 132 130 129 127 127 125 122 120 120 118 115 115 130 154 166 165 161 172 214 209 198 192 186 197 240 278 328 351 359 1 358 356 356
194 173 155 136 101 79 70 60 54 54 56 59 59 57 58 63 67 70 74 77 77 79 80 79 79 80 80 80 81 82 83 87 90 93 98 103 107 114 120 123 124 125 126 128 132 134 133 133 134 135 132 130 128 127 126 125 123 120 116 113 112 109 101 95 98 127 159 164 163 176 184 175 175 182 192 212 231 268 324 350 2 5 2 358 357
200 193 181 163 128 104 94 78 64 56 52 53 56 58 60 66 69 71 77 81 83 85 86 85 85 85 85 85 85 86 87 89 90 92 96 99 104 110 115 118 119 120 121 122 125 127 127 128 128 126 124 123 123 123 122 120 118 116 114 112 110 108 107 102 91 102 149 161 155 158 162 156 156 170 230 273 260 279 317 346 4 9 3 356 357
199 198 191 183 166 144 127 111 94 76 61 55 57 60 64 68 68 69 74 80 85 89 92 92 92 93 93 92 92 92 92 93 93 93 95 97 99 104 108 110 111 112 112 112 114 114 115 116 116 114 114 114 115 115 114 113 113 114 112 109 104 101 116 127 105 100 132 142 132 139 152 152 153 167 192 267 284 294 314 336 355 4 359 352 353
196 198 195 195 191 174 151 131 117 104 85 71 69 72 74 74 71 70 72 76 82 89 94 96 98 99 100 100 101 100 99 99 98 99 100 100 102 104 107 108 109 109 108 109 110 110 110 113 115 115 112 108 105 104 101 98 97 96 94 96 92 94 131 146 125 105 120 128 123 132 145 149 154 169 138 42 22 316 315 320 335 352 356 352 353
195 198 198 198 193 179 163 150 138 130 123 110 90 85 87 88 85 82 79 79 84 91 96 99 100 101 103 105 105 104 102 101 100 101 102 104 107 109 110 110 110 110 110 112 114 116 118 121 124 122 115 105 98 94 87 77 70 66 66 73 79 97 130 141 124 109 120 126 124 130 137 142 159 219 298 348 350 349 339 317 321 342 351 345 347
196 201 202 198 190 182 175 168 161 155 153 147 131 113 107 105 103 100 96 92 96 102 105 107 106 104 103 104 104 103 103 104 104 105 106 107 108 109 108 108 108 108 110 114 117 119 121 120 115 111 108 101 93 87 77 70 65 60 59 63 74 96 121 127 116 114 125 132 131 134 138 136 179 243 294 342 343 349 356 330 320 336 345 337 336